Regional Weather Roundup
Issued by NWS

Home | Current Version | Previous Version | Text Only | Print | Product List | Glossary On
Versions: 1 2 3 4 5 6 7 8 9 10 11 12 13 14 15 16 17 18 19 20 21 22 23 24 25 26 27 28 29 30 31 32 33 34 35 36 37 38 39 40 41 42 43 44 45 46 47 48 49 50
000
ASUS43 KBIS 240510
RWRND

NORTH DAKOTA REGIONAL WEATHER ROUNDUP
NATIONAL WEATHER SERVICE BISMARCK ND
1200 AM CDT THU APR 24 2014

NOTE: "FAIR" INDICATES FEW OR NO CLOUDS BELOW 12,000 FEET WITH NO
SIGNIFICANT WEATHER AND/OR OBSTRUCTIONS TO VISIBILITY.


NDZ001>003-009>011-017-240600-
NORTHWEST NORTH DAKOTA

CITY           SKY/WX    TMP DP  RH WIND       PRES   REMARKS
WILLISTON      PTCLDY    36  34  92 SW3       29.63S
MINOT          PTCLDY    41  39  93 S8        29.65S
MINOT AFB      MOCLDY    40  40 100 S8        29.64S FOG
$$

NDZ018>021-031>035-040>046-240600-
SOUTHWEST NORTH DAKOTA

CITY           SKY/WX    TMP DP  RH WIND       PRES   REMARKS
BISMARCK       CLOUDY    38  32  79 CALM      29.71S
DICKINSON      MOCLDY    35  23  61 S5        29.68S
GARRISON         N/A     38  37  97 S3        29.68R
HETTINGER ARPT MOCLDY    35  27  72 CALM      29.73S
$$

NDZ004>008-012>016-024-026-027-054-240600-
NORTHEAST NORTH DAKOTA

CITY           SKY/WX    TMP DP  RH WIND       PRES   REMARKS
GRAND FORKS    LGT RAIN  39  36  89 SE16G23   29.83F
GRND FRKS AFB  CLOUDY    37  37 100 SE13      29.82F
DEVILS LAKE    CLOUDY    37  34  87 SE14      29.74F
$$

NDZ022-023-025-028>030-036>039-047>053-240600-
SOUTHEAST NORTH DAKOTA

CITY           SKY/WX    TMP DP  RH WIND       PRES   REMARKS
FARGO          CLOUDY    42  37  82 SE15      29.80R
JAMESTOWN      CLOUDY    40  38  93 SE17G24   29.76R
$$




USA.gov is the U.S. government's official web portal to all federal, state and local government web resources and services.